Location: Unspecified
(51.5147°N, 7.4673°E)
Time: 07:53:34
(UTC+01:00)

Vanguard 1 Rocket - Pass Details

Date: 19 February 2026
Orbit: 653 x 4214 km, 34.3° (Epoch: 7 March)

Event Time Altitude Azimuth Distance (km) Brightness Sun altitude
Rises 11:46:46 0° 184° (S) 3,995 11.8 26.1°
Reaches altitude 10° 11:51:14 10° 157° (SSE) 3,597 12.2 26.3°
Maximum altitude 11:55:05 13° 132° (SE) 3,848 11.6 26.4°
Drops below altitude 10° 11:59:51 10° 109° (ESE) 4,698 11.5 26.6°
Sets 12:07:57 0° 88° (E) 6,644 11.9 26.8°
